DW4362 Weather Reports


time (UTC)temp
C
wind
direction
speed
KPH
gust
KPH
rain 1hr
cm
rain 24hr
cm
rain mn
cm
humidity
%
barometer
mb
20260906220214 31 172 0.0 0.0 0.00 0.00 0.00 79 1008.2
20260906213214 32 210 0.0 0.0 0.00 0.00 0.00 74 1008.2
20260906210214 33 205 0.0 4.8 0.00 0.00 0.00 69 1008.6
20260906203214 33 205 4.8 4.8 0.00 0.00 0.00 69 1008.8
20260906200214 35 89 0.0 3.2 0.00 0.00 0.00 64 1009.3
20260906193214 33 28 0.0 0.0 0.00 0.00 0.00 63 1009.7
20260906190213 33 63 0.0 0.0 0.00 1.12 0.00 67 1010.1
20260906183214 31 146 3.2 4.8 0.00 1.12 0.00 77 1010.6
20260906180213 32 222 0.0 0.0 0.00 1.12 0.00 70 1011.0
20260906173214 32 135 0.0 0.0 0.00 1.12 0.00 73 1011.4
20260906170213 33 105 0.0 3.2 0.00 1.12 0.00 64 1011.8
20260906160213 33 272 0.0 0.0 0.00 1.12 0.00 71 1011.9
20260906153213 31 139 0.0 0.0 0.00 1.12 0.00 75 1012.0
20260906150213 30 131 0.0 3.2 0.00 1.12 0.00 76 1012.1
20260906143212 31 169 0.0 0.0 0.00 1.12 0.00 77 1012.1
20260906123212 23 198 0.0 0.0 0.00 1.12 0.00 95 1012.3
20260906120212 23 198 0.0 0.0 0.00 1.12 0.00 95 1011.8
20260906113212 23 198 0.0 0.0 0.00 1.14 0.00 95 1011.5
20260906110211 23 198 0.0 0.0 0.00 1.14 0.00 95 1011.3
20260906103211 23 198 0.0 0.0 0.00 1.14 0.00 95 1011.1
20260906100211 23 198 0.0 0.0 0.00 1.14 0.00 95 1010.9
20260906093211 23 198 0.0 0.0 0.00 1.14 0.00 94 1010.8
20260906090211 23 198 0.0 0.0 0.00 1.14 0.00 95 1010.6
20260906083211 23 198 0.0 0.0 0.00 1.14 0.00 94 1010.6
20260906080211 23 198 0.0 0.0 0.00 1.14 0.00 95 1010.4
20260906073211 23 198 0.0 0.0 0.00 1.14 0.00 95 1010.3
20260906070210 24 198 0.0 0.0 0.00 1.14 0.00 95 1010.6
20260906063210 24 198 0.0 0.0 0.00 1.14 0.00 95 1010.3
20260906060210 24 198 0.0 0.0 0.00 1.14 0.00 95 1010.8
20260906053210 24 198 0.0 0.0 0.00 1.14 0.00 95 1010.8
20260906050210 24 198 0.0 0.0 0.00 1.14 0.00 95 1011.2
20260906033209 25 198 0.0 0.0 0.00 1.14 1.14 95 1011.6
20260906030210 25 198 0.0 0.0 0.00 1.14 1.14 94 1011.7
20260906023209 26 198 0.0 0.0 0.00 1.14 1.14 93 1011.5
20260906020210 26 198 0.0 0.0 0.00 1.14 1.14 92 1011.2
20260906013209 26 198 0.0 0.0 0.00 1.14 1.14 91 1010.5
20260906010209 27 146 0.0 0.0 0.00 1.14 1.14 89 1010.3
20260906003210 27 237 0.0 0.0 0.00 1.14 1.14 88 1010.3
20260906000212 28 169 0.0 0.0 0.00 1.14 1.14 87 1010.2
20260905233209 28 120 0.0 0.0 0.00 1.14 1.14 85 1010.3
20260905223208 30 123 0.0 0.0 0.00 1.14 1.14 79 1010.7